{"data":{"norad_id":68356,"epoch":"2026-05-20T14:46:52.043232Z","epoch_age_seconds":450234,"freshness":"STALE","line1":"1 68356U 26060G   26140.61588013 -.00000112  00000+0  14484-4 0  9996","line2":"2 68356  54.9855 148.3779 0013920  78.7105 281.5457 14.73998729  8704","mean_motion":14.73998729,"eccentricity":0.001392,"inclination_deg":54.9855,"raan_deg":148.3779,"arg_perigee_deg":78.7105,"mean_anomaly_deg":281.5457,"bstar":1.4484e-5,"rev_number":870,"period_min":97.693435663743,"perigee_km":638.55062880074,"apogee_km":658.11231702933,"semimajor_km":7026.468472915,"source":"CELESTRAK","updated_at":"2026-05-25T13:38:07.761962Z"}}